Showing default

HAISHAO 1, 62190

Orbit data source: Space-Track

HAISHAO 1, 62190 is a Chinese payload satellite in LEO that was launched on Wed, 04 Dec 2024 UTC via a KUAIZHOU-1A launch vehicle from the Xichang Space Center, China (XSC). Payload-class satellites include a variety of spacecraft equipped with specific instruments for various scientific and technological missions. These include communications satellites like Starlink; space stations such as the ISS; scientific satellites like the Hubble; Earth observation satellites from companies like Planet Labs, Umbra, and HawkEye 360; GPS; miniature CubeSats for education and research; and military/defense satellites.

Loading next visibility...
Identifier
62190, 2024-228A
Orbit
LEO
Last TLE update
7 hours ago
Origin
Manufacturer
ZHWK/IMICAS
Mission
Operational Commercial Radar Imaging
Bus & Motor
ZK1, Unknown motor
Mass
400 kg wet, 400 kg dry
Launch date (UTC)
2024-12-04 (7 months ago)
Launch vehicle
KUAIZHOU-1A
Launch site
Xichang Space Center, China (XSC)
Object type
Payload
Rocket body
Debris
Shape & HBR
Box + 3 Pan, 6 m
Radar Cross Section
3.533 m², Large (>1 m²)

Expand to show TLE details & history

TLE from 7 hours ago
0 HAISHAO 1
1 62190U 24228A   25183.58210065  .00027785  00000-0  27513-3 0  9992
2 62190  42.9907 295.8910 0005016 335.0576  25.0046 15.65267221 32791
Epoch: 2025-07-02T13:58Z
TLE epoch observation values (Epoch: 2025-07-02T13:58:13.496Z)
Latitude
-0.00003°
Longitude
165.47359°
Altitude
369.173 km
Speed
7.692 km/s
True Right ascension
19h 43m 33s
True Declination
0° 00' 00"
Sunlit
Object was in full shadow at epoch
Visualization orbit readout
Latitude
-38.74862°
Longitude
104.75537°
Altitude
381.46 km
Speed
7.683 km/s
Apparent Right ascension
18h 15m 30s
Apparent Declination
-46° 56' 07"
Sunlit
Object is in full shadow
Visualization observer readout
Local Sidereal Time
09:04:56
Azimuth
117.214° SE
Elevation
-58.846°
Doppler factor
1
Orbital elements
Apogee altitude
377.836 km
Perigee altitude
371.062 km
Semi-major axis
6,752.586 km
Eccentricity
0.0005
Inclination
42.9907°
RAAN
295.891°
Arg. of periapsis
335.0576°
True anomaly
Unknown
Mean anomaly
25.0046°
Eccentric anomaly
Unknown
Mean motion
3.91145 °/min
Orbital period
92.04 mins
BSTAR
0.00027513
Loading maneuver chart data...
Loading SW <> Apogee altitude chart data...
Loading historical data...
Loading historical data...
Loading historical data...
Loading historical data...
Loading historical data...
Loading historical data...
Loading historical data...
Other satellites on launch #228 in the year 2024 (2024-12-04 UTC)

HAISHAO 1 Visibility forecast

Observer location: undefined°, undefined°

Span
Click to sort rows by Start time (UTC) header in descending order
Start Az.
Max El. time (UTC)
Max El. Az.
Max El.
End time (UTC)
End Az.
4 mins2025-07-03 11:40:45.927Z244.844° WSW2025-07-03 11:41:45.927Z230.373° WSW42.65°2025-07-03 11:44:45.927Z73.151° E
4 mins2025-07-03 13:16:45.927Z290.048° WNW2025-07-03 13:18:45.927Z2.027° NNE35.184°2025-07-03 13:20:45.927Z66.04° ENE
4 mins2025-07-03 14:53:45.927Z295.474° NW2025-07-03 14:55:45.927Z66.482° ENE40.657°2025-07-03 14:57:45.927Z97.879° ESE
|